Current weather by "City, St" or "zip code"  
 

Current Conditions: Washington/Reagan National Airport, DC, VA

Mostly Cloudy


45.0 F

Last Updated on Oct 31 2020, 5:52 am EDT
Humidity: 66%
Wind Speed: N 10.4 mph
Barometer 30.45 in
Dewpoint: 34.0 F
Visibility: 10.00 mi
Precip: --
Heat Index: NA
Wind Chill: 40 F
Current conditions at:

Washington/Reagan National Airport, DC, VA (KDCA)

Lat: 38.84833 Lon: 77.03417

Local Radar Image active severe weather and emergency alerts image image weather storm and storm spotter reports image weather observation monitoring service image
Local
Radar
Active
Alerts
Storm Reports Obs
Monitoring

Sign-up For Email & Text Message Weather Alert Notification Services



Advertise Here

Observation History for Washington/Reagan National Airport, DC, VA


Time Wind
(mph)
Vis
(mi)
Weather Precip (in) Temperature (F) Relative
Humidity
Wind
Chill
(F)
Heat
Index
(F)
Pressure
Air Dwpt altimeter
(in)
sea level
(mb)
Rmks
5:52 am EDT N 10.4 10.00 Mostly Cloudy -- 45.0 34.0 66% 40 NA 30.45 1031.1
4:52 am EDT N 9.2 10.00 Mostly Cloudy -- 46.0 36.0 68% 41 NA 30.42 1030.0
3:52 am EDT N 10.4 10.00 Overcast -- 46.0 39.0 77% 41 NA 30.40 1029.4
2:52 am EDT N 8.1 10.00 Mostly Cloudy -- 45.0 39.0 80% 41 NA 30.39 1029.1
1:52 am EDT N 15.0 10.00 Mostly Cloudy -- 47.0 39.0 74% 41 NA 30.37 1028.4
12:52 am EDT NW 12.7 10.00 Overcast -- 48.0 39.9 74% 43 NA 30.35 1027.8
11:52 pm EDT NW 10.4 10.00 Overcast -- 49.0 41.0 74% 45 NA 30.33 1027.0
10:52 pm EDT NW 10.4 10.00 Mostly Cloudy 00.01 49.0 42.1 77% 45 NA 30.30 1026.0
9:52 pm EDT NW 8.1 10.00 Overcast -- 50.0 42.1 74% 47 NA 30.26 1024.8
8:52 pm EDT NW 8.1 10.00 Partly Cloudy -- 50.0 41.0 71% 47 NA 30.23 1023.6
7:52 pm EDT NW 5.8 10.00 Overcast Trace 52.0 39.9 64% 50 NA 30.20 1022.8
6:52 pm EDT NW 5.8 10.00 Mostly Cloudy -- 51.0 39.9 66% 49 NA 30.15 1021.0
5:52 pm EDT N 9.2 10.00 Partly Cloudy -- 51.0 39.9 66% 48 NA 30.12 1019.9
4:52 pm EDT N 11.5 10.00 A Few Clouds -- 54.0 41.0 62% 51 NA 30.09 1019.0
3:52 pm EDT N 15.0 G 23.0 10.00 Mostly Cloudy -- 54.0 41.0 62% 50 NA 30.08 1018.4
2:52 pm EDT N 11.5 10.00 Mostly Cloudy -- 52.0 42.1 69% 48 NA 30.05 1017.5
1:52 pm EDT NW 13.8 10.00 Mostly Cloudy -- 51.0 42.1 71% 46 NA 30.02 1016.5
12:52 pm EDT NW 16.1 G 24.2 10.00 Mostly Cloudy -- 53.0 44.1 72% 48 NA 29.99 1015.4
11:52 am EDT N 15.0 10.00 Mostly Cloudy -- 53.0 43.0 69% 48 NA 29.96 1014.4
10:52 am EDT N 19.6 10.00 Mostly Cloudy -- 50.0 43.0 77% 44 NA 29.92 1013.1
9:52 am EDT N 15.0 G 25.3 10.00 Overcast -- 50.0 45.0 83% 45 NA 29.89 1012.1
8:52 am EDT N 15.0 10.00 Overcast -- 50.0 46.0 86% 45 NA 29.84 1010.5
7:52 am EDT NW 13.8 10.00 Overcast -- 50.0 46.0 86% 45 NA 29.77 1008.2
6:52 am EDT N 15.0 10.00 Overcast Trace 50.0 46.0 86% 45 NA 29.73 1006.6

Regional Weather Observation


Washington/Reagan National Airport, DC, VA (KDCA)

Mostly Cloudy
45.0 F

Washington/Dulles International Airport, DC, VA (KIAD)

A Few Clouds
35.0 F

Fort Belvoir, VA (KDAA)

Fair
38.0 F

Frederick Municipal Airport, MD (KFDK)

Fog
32.0 F

College Park Airport, MD (KCGS)

Overcast
42.0 F

Manassas, Manassas Regional Airport/Harry P. Davis Field, VA (KHEF)

Fair
39.0 F